FENGYUN 3H

Last updated on Mon Oct 20 2025 00:02:07 GMT+0000 (Coordinated Universal Time)

1 65815U 25219A 25292.25734749 .00000189 00000+0 10950-3 0 9990 2 65815 98.6486 233.0567 0001552 73.0134 287.1213 14.19881654 3199
UTC large
Height (km)
Speed (km/s)
/
Latitude / Longitude
Inclination (degrees)
Orbital Period (minutes)
Azimuth
Elevation
Range (km)
Doppler Factor

Next 0 passes for location: London (51.5072 / 0.1276)

Sorry there are no passes over London.